Weather History for Morganton, NC

Change the Weather History Date:

Thursday, February 14, 2013

  Actual Average (KHKY) Record (KHKY)
Temperature  
Mean Temperature 40 °F -  
Max Temperature 53 °F 53 °F 76 °F (1949)
Min Temperature 27 °F 31 °F 15 °F (1988)
Degree Days  
Heating Degree Days 25    
Moisture  
Dew Point 29 °F    
Average Humidity 68    
Maximum Humidity 98    
Minimum Humidity 36    
Precipitation  
Precipitation 0.00 in - - ()
Sea Level Pressure  
Sea Level Pressure 30.01 in    
Wind  
Wind Speed 3 mph (WSW)    
Max Wind Speed 10 mph    
Max Gust Speed 17 mph    
Visibility 10 miles    
Events      
Averages and records for this station are not official NWS values.
T = Trace of Precipitation, MM = Missing Value Source: NWS Daily Summary

Daily Weather History Graph

Daily Weather History Graph

Search for Another Location

Airport:

Trip Planner

Search our weather history database for the weather conditions in past years. The results will help you decide how hot, cold, wet, or windy it might be!

Date:

Astronomy

Feb. 14, 2013 Rise Set
Actual Time 7:14 AM EST 6:07 PM EST
Civil Twilight 6:48 AM EST 6:33 PM EST
Nautical Twilight 6:18 AM EST 7:03 PM EST
Astronomical Twilight 5:48 AM EST 7:33 PM EST
Moon 9:26 AM EST (2/14) 10:56 PM EST (2/14)
Length of Visible Light 11h 45m
Length of Day
10h 53m
Waxing Crescent, 21% of the Moon is Illuminated
Feb 14
Waxing Crescent
Feb 17
First Quarter
Feb 25
Full
Mar 4
Last Quarter
Mar 11
New

Hourly Weather History & Observations

Time (EST) Temp. Windchill Dew Point Humidity Pressure Visibility Wind Dir Wind Speed Gust Speed Precip Events Conditions
12:15 AM 37.0 °F - 30.7 °F 78% 29.91 in 10.0 mi Calm Calm - N/A   Clear
12:35 AM 36.1 °F 33.5 °F 30.7 °F 81% 29.92 in 10.0 mi SW 3.5 mph - N/A   Clear
12:55 AM 38.5 °F 36.1 °F 29.8 °F 71% 29.93 in 10.0 mi West 3.5 mph - N/A   Clear
1:15 AM 35.8 °F 30.9 °F 30.2 °F 80% 29.93 in 10.0 mi West 5.8 mph - N/A   Clear
1:35 AM 38.3 °F 34.8 °F 28.9 °F 69% 29.93 in 10.0 mi WNW 4.6 mph - N/A   Clear
1:55 AM 38.3 °F 31.4 °F 27.9 °F 66% 29.93 in 10.0 mi WNW 10.4 mph 17.3 mph N/A   Clear
2:15 AM 38.8 °F 34.6 °F 27.1 °F 63% 29.94 in 10.0 mi NW 5.8 mph - N/A   Clear
2:35 AM 38.7 °F 33.6 °F 26.6 °F 62% 29.94 in 10.0 mi NW 6.9 mph - N/A   Clear
2:55 AM 38.5 °F 34.1 °F 26.4 °F 62% 29.95 in 10.0 mi NW 5.8 mph - N/A   Clear
3:15 AM 38.3 °F 33.9 °F 26.1 °F 61% 29.95 in 10.0 mi NW 5.8 mph - N/A   Clear
3:35 AM 38.1 °F 34.6 °F 25.7 °F 61% 29.95 in 10.0 mi NW 4.6 mph - N/A   Clear
3:55 AM 37.4 °F 33.8 °F 25.7 °F 63% 29.95 in 10.0 mi NW 4.6 mph - N/A   Clear
4:15 AM 36.9 °F - 25.5 °F 64% 29.95 in 10.0 mi Calm Calm - N/A   Clear
4:35 AM 35.2 °F 32.4 °F 25.9 °F 69% 29.95 in 10.0 mi West 3.5 mph - N/A   Clear
4:55 AM 36.1 °F 33.5 °F 25.3 °F 65% 29.96 in 10.0 mi WSW 3.5 mph - N/A   Clear
5:15 AM 31.3 °F - 26.2 °F 82% 29.97 in 10.0 mi Calm Calm - N/A   Clear
5:35 AM 29.1 °F - 27.9 °F 95% 29.97 in 10.0 mi Calm Calm - N/A   Clear
5:55 AM 29.1 °F - 27.5 °F 94% 29.99 in 10.0 mi Calm Calm - N/A   Clear
6:15 AM 28.9 °F - 27.9 °F 96% 29.99 in 10.0 mi Calm Calm - N/A   Clear
6:35 AM 27.7 °F - 26.8 °F 96% 30.00 in 10.0 mi Calm Calm - N/A   Clear
6:55 AM 27.9 °F - 27.1 °F 97% 30.01 in 10.0 mi Calm Calm - N/A   Clear
7:15 AM 27.3 °F - 26.4 °F 96% 30.02 in 10.0 mi Calm Calm - N/A   Clear
7:35 AM 27.5 °F - 26.8 °F 97% 30.04 in 10.0 mi Calm Calm - N/A   Clear
7:55 AM 28.4 °F - 27.9 °F 98% 30.04 in 10.0 mi Calm Calm - N/A   Clear
8:15 AM 32.4 °F 29.1 °F 30.9 °F 94% 30.06 in 10.0 mi South 3.5 mph - N/A   Clear
8:35 AM 34.5 °F - 28.6 °F 79% 30.06 in 10.0 mi Calm Calm - N/A   Clear
8:55 AM 36.9 °F - 27.9 °F 70% 30.07 in 10.0 mi Calm Calm - N/A   Clear
9:15 AM 37.2 °F 33.6 °F 27.1 °F 67% 30.08 in 10.0 mi WSW 4.6 mph - N/A   Clear
9:35 AM 37.4 °F 34.9 °F 28.0 °F 69% 30.09 in 10.0 mi West 3.5 mph - N/A   Clear
10:15 AM 39.7 °F - 27.7 °F 62% 30.08 in 10.0 mi Calm Calm - N/A   Clear
10:35 AM 41.5 °F 39.6 °F 25.5 °F 53% 30.07 in 10.0 mi NW 3.5 mph - N/A   Clear
10:55 AM 42.8 °F - 25.9 °F 51% 30.06 in 10.0 mi Calm Calm - N/A   Clear
11:15 AM 44.1 °F 42.5 °F 27.5 °F 52% 30.06 in 10.0 mi WNW 3.5 mph - N/A   Clear
11:35 AM 45.0 °F - 26.4 °F 48% 30.07 in 10.0 mi Calm Calm - N/A   Clear
11:55 AM 46.4 °F 42.9 °F 25.9 °F 45% 30.06 in 10.0 mi South 6.9 mph - N/A   Clear
12:15 PM 46.9 °F - 26.1 °F 44% 30.06 in 10.0 mi SSW 6.9 mph - N/A   Clear
12:35 PM 48.6 °F - 27.0 °F 43% 30.05 in 10.0 mi South 5.8 mph - N/A   Clear
12:55 PM 49.5 °F - 28.0 °F 44% 30.04 in 10.0 mi SW 5.8 mph - N/A   Clear
1:15 PM 50.5 °F - 27.7 °F 41% 30.03 in 10.0 mi SW 5.8 mph - N/A   Clear
1:35 PM 50.9 °F - 28.6 °F 42% 30.02 in 10.0 mi SSW 8.1 mph - N/A   Clear
1:55 PM 51.3 °F - 29.3 °F 43% 30.00 in 10.0 mi South 6.9 mph - N/A   Clear
2:15 PM 52.3 °F - 28.6 °F 40% 29.99 in 10.0 mi SW 6.9 mph - N/A   Clear
2:35 PM 53.1 °F - 29.1 °F 40% 29.99 in 10.0 mi SSW 9.2 mph - N/A   Clear
2:55 PM 53.1 °F - 28.4 °F 39% 30.00 in 10.0 mi South 6.9 mph - N/A   Clear
3:15 PM 53.4 °F - 27.0 °F 36% 30.01 in 10.0 mi SW 9.2 mph - N/A   Clear
3:35 PM 53.2 °F - 27.3 °F 37% 30.00 in 10.0 mi SW 8.1 mph - N/A   Clear
3:55 PM 53.6 °F - 28.0 °F 37% 30.01 in 10.0 mi WSW 8.1 mph - N/A   Clear
4:15 PM 52.7 °F - 30.0 °F 42% 30.00 in 10.0 mi South 4.6 mph - N/A   Clear
4:35 PM 53.1 °F - 29.8 °F 41% 30.00 in 10.0 mi SSW 4.6 mph - N/A   Clear
4:55 PM 53.1 °F - 30.2 °F 42% 30.00 in 10.0 mi SSW 3.5 mph - N/A   Clear
5:15 PM 52.7 °F - 30.6 °F 43% 30.00 in 10.0 mi South 3.5 mph - N/A   Clear
5:35 PM 51.6 °F - 31.1 °F 45% 30.01 in 10.0 mi South 3.5 mph - N/A   Clear
5:55 PM 50.4 °F - 30.9 °F 47% 30.01 in 10.0 mi Calm Calm - N/A   Clear
6:15 PM 48.4 °F - 31.6 °F 52% 30.02 in 10.0 mi Calm Calm - N/A   Clear
6:35 PM 40.5 °F - 35.8 °F 83% 30.02 in 10.0 mi Calm Calm - N/A   Clear
6:55 PM 39.4 °F - 33.4 °F 79% 30.03 in 10.0 mi Calm Calm - N/A   Clear
7:15 PM 37.4 °F 34.9 °F 32.5 °F 83% 30.02 in 10.0 mi West 3.5 mph - N/A   Clear
7:35 PM 38.3 °F - 31.3 °F 76% 30.03 in 10.0 mi Calm Calm - N/A   Clear
7:55 PM 36.3 °F - 32.0 °F 84% 30.04 in 10.0 mi Calm Calm - N/A   Clear
8:15 PM 36.0 °F - 31.6 °F 84% 30.05 in 10.0 mi Calm Calm - N/A   Clear
8:35 PM 33.4 °F - 31.6 °F 93% 30.04 in 10.0 mi Calm Calm - N/A   Clear
8:55 PM 32.0 °F - 29.8 °F 92% 30.05 in 10.0 mi Calm Calm - N/A   Clear
9:15 PM 34.9 °F 32.0 °F 32.4 °F 91% 30.05 in 10.0 mi SE 3.5 mph - N/A   Clear
9:35 PM 34.5 °F 31.6 °F 31.6 °F 89% 30.06 in 10.0 mi SSE 3.5 mph - N/A   Clear
9:55 PM 31.8 °F - 30.2 °F 94% 30.07 in 10.0 mi Calm Calm - N/A   Clear
10:15 PM 31.1 °F - 29.7 °F 94% 30.07 in 10.0 mi Calm Calm - N/A   Clear
10:35 PM 33.8 °F 29.6 °F 30.4 °F 87% 30.07 in 10.0 mi North 4.6 mph - N/A   Clear
10:55 PM 35.2 °F - 32.2 °F 89% 30.07 in 10.0 mi Calm Calm - N/A   Clear
11:15 PM 34.9 °F 30.8 °F 32.2 °F 90% 30.07 in 10.0 mi NNW 4.6 mph - N/A   Clear
11:35 PM 31.6 °F 28.3 °F 29.1 °F 90% 30.07 in 10.0 mi ENE 3.5 mph - N/A   Clear
11:55 PM 31.1 °F - 30.2 °F 96% 30.07 in 7.0 mi Calm Calm - N/A   Clear